Location: *
(37.9500°N, 27.3666°E)
Time: 15:34:19
(UTC+00:00)

USA 267 - Pass Details

Date: 24 October 2021
Orbit: 1101 x 1107 km, 123.0° (Epoch: 27 November)

Event Time Altitude Azimuth Distance (km) Brightness Sun altitude
Exits shadow 16:06:27 - 123° (ESE) 3,771 5.6 -9.6°
Reaches altitude 10° 16:08:35 10° 121° (ESE) 2,951 5.1 -10.0°
Maximum altitude 16:15:01 67° 40° (NE) 1,188 3.3 -11.3°
Drops below altitude 10° 16:21:29 10° 320° (NW) 2,961 6.0 -12.6°
Sets 16:23:59 0° 318° (NW) 3,921 6.7 -13.1°
